DELTA 2 R/B(2) (PAM-D), 28876

Orbit data source: Space-Track

DELTA 2 R/B(2) (PAM-D), 28876 is space debris in HEO originally from a launch on Mon, 26 Sep 2005 UTC launched from the Air Force Eastern Test Range (AFETR). Debris objects in space refer to the collection of defunct objects orbiting the Earth. Examples of debris include non-operational satellites, rocket bodies, and fragments generated from explosions, collisions, or faulty payload assembly.

Loading next visibility...
Identifier
28876, 2005-038C
Orbit
HEO
Country
Flag of USUS
Related business
Manufacturer
ATK/Elkton
Mission
Spacecraft
Bus & Motor
STAR 48, Unknown motor
Mass
133 kg wet, 132 kg dry
Launch date (UTC)
2005-09-26 (21 years ago)
Launch vehicle
Unknown
Launch site
Air Force Eastern Test Range (AFETR)
Object type
Payload
Rocket body
Debris
Shape & HBR
Sphere + Cone, 1.1 m
Radar Cross Section
2.822 m², Large (>1 m²)

Expand to show TLE details & history
Last TLE update: 17 hours ago

TLE from 17 hours ago
0 DELTA 2 R/B(2) (PAM-D)
1 28876U 05038C   26166.00007466  .00013142  00000-0  80529-3 0  9999
2 28876  39.5525 338.6313 5067008 293.8093  21.8681  5.57831507349912
Epoch: 2026-06-15T00:00Z
TLE epoch observation values (Epoch: 2026-06-15T00:00:06.450Z)
Latitude
0.00009°
Longitude
75.30509°
Altitude
1,908.827 km
Speed
8.157 km/s
True Right ascension
22h 34m 29s
True Declination
0° 00' 00"
Sunlit
Object was in daylight at epoch
Visualization orbit readout
Latitude
Unknown
Longitude
Unknown
Altitude
Unknown
Speed
Unknown
Apparent Right ascension
Unknown
Apparent Declination
Unknown
Sunlit
N/A
Visualization observer readout
Local Sidereal Time
03:42:56
Azimuth
Unknown
Elevation
Unknown
Doppler factor
Unknown
Orbital elements
Apogee altitude
13,859.444 km
Perigee altitude
247.719 km
Semi-major axis
13,431.719 km
Eccentricity
0.5067
Inclination
39.5525°
RAAN
338.6313°
Arg. of periapsis
293.8093°
True anomaly
66.13015°
Mean anomaly
21.8681°
Eccentric anomaly
40.86177°
Mean motion
1.39427 °/min
Orbital period
258.2 mins
BSTAR
0.00080529
Loading maneuver chart data...
Computing Atmospheric mass density...
Loading historical data...
Loading historical data...
Loading historical data...
Loading historical data...
Loading historical data...
Loading historical data...
Loading historical data...
Other satellites on launch #38 in the year 2005 (2005-09-26 UTC)

Documentation

Showing up to 5 results
|